View Data : List Evapotranspiration (ETo ) Reports


 
Search Evapotranspiration Reports
Station Fields:
Location:
Date Range:
Start Date:   End Date:
Searched: Report date on 5/28/2017.
Showing 1 - 50 of 94 Records. <Back  Page   Next>
DateTimeStation NumberStation NameGaugeReadingRefill LevelEvap AmtView
5/28/2017  12:00 AM  MN-AA-5  East Bethel 3.1 NE 2.72  0.10   
5/28/2017  5:00 AM  NY-CQ-22  Fredonia 0.8 WNW 4.01  0.08   
5/28/2017  5:11 AM  WI-MC-4  Two Rivers 1.4 N 1.59  0.09   
5/28/2017  5:30 AM  AL-MD-25  Huntsville 4.4 ENE 7.92  0.07   
5/28/2017  5:30 AM  IN-TN-1  Atlanta 4.4 W 4.35  0.05   
5/28/2017  5:30 AM  TX-KN-4  Boerne 5.1 NNW 3.95  0.14   
5/28/2017  6:00 AM  CA-SJ-5  Lodi 1.0 NNW 0.25  0.15   
5/28/2017  6:00 AM  IN-PT-12  Valparaiso 4.3 SW 2.76  0.05   
5/28/2017  6:00 AM  KY-ME-8  Harrodsburg 10.8 NW 4.78  0.11   
5/28/2017  6:00 AM  MD-MG-54  Germantown 4.6 NNE 4.62  0.02   
5/28/2017  6:00 AM  NH-CS-7  Lancaster 0.5 N 0.21  0.01   
5/28/2017  6:00 AM  PA-MT-85  Skippack 2.6 ESE 4.80  0.08   
5/28/2017  6:00 AM  PA-MT-16  North Wales 1.3 WSW 3.28  0.08   
5/28/2017  6:00 AM  TN-MA-3  Jasper 1.7 N 9.20  0.24   
5/28/2017  6:00 AM  VA-BD-9  Bedford 3.2 W 2.75  0.15   
5/28/2017  6:00 AM  VA-FR-26  Ferrum 2.7 SW 2.33  0.18   
5/28/2017  6:00 AM  WY-PK-7  Cody 2.4 WSW 0.42  0.00   
5/28/2017  6:23 AM  NJ-MS-21  Randolph Twp 0.8 W 2.74  0.02   
5/28/2017  6:30 AM  IL-WN-2  Roscoe 1.6 ESE 0.65  0.12   
5/28/2017  6:30 AM  IA-LN-7  Central City 6.7 W 3.90  0.04   
5/28/2017  6:30 AM  IA-TY-2  New Market 4.7 N 3.90  0.06   
5/28/2017  6:30 AM  PA-CN-13  Boalsburg 0.4 E 5.25  0.15   
5/28/2017  6:30 AM  TX-ER-4  Stephenville 2.6 NNW 7.20  0.15   
5/28/2017  6:44 AM  MO-CP-7  Boonville 0.5 ESE 2.17  0.10   
5/28/2017  6:45 AM  WA-SJ-28  Lopez Island 3.9 NNE 3.46  0.12   
5/28/2017  7:00 AM  AZ-PN-50  Saddlebrooke 1.5 SW 0.45  0.25   
5/28/2017  7:00 AM  CA-HM-5  Mckinleyville 7.3 ESE 0.09  0.04   
5/28/2017  7:00 AM  CA-SD-12  Poway 3.2NE 9.75  0.13   
5/28/2017  7:00 AM  CA-SN-100  Glen Ellen 1.9 NNW 5.15  0.17   
5/28/2017  7:00 AM  CA-TH-11  Red Bluff 5.1 NNW 7.41  0.16   
5/28/2017  7:00 AM  CO-LR-623  Fort Collins 6.1 SW 3.15  0.09   
5/28/2017  7:00 AM  CO-LR-284  FCL 3.0 W 1.50  0.12   
5/28/2017  7:00 AM  CO-ME-79  Grand Junction 3.9 WSW 4.85  0.25   
5/28/2017  7:00 AM  IL-CP-1  Homer 2.0 N 3.87  0.16   
5/28/2017  7:00 AM  IL-GY-1  Carbon Hill 3.1 N 3.93  0.14   
5/28/2017  7:00 AM  IL-KN-67  St. Charles 6.0 NW 0.24  0.12   
5/28/2017  7:00 AM  IN-AL-5  Huntertown 2.6 ESE 3.34  0.03   
5/28/2017  7:00 AM  IN-HR-5  Milltown 5.7 SSE 6.01  0.09   
5/28/2017  7:00 AM  IN-MR-13  Speedway 6.2 SSW 4.84  0.15   
5/28/2017  7:00 AM  IN-OW-9  Spencer 7.0 S 5.70  0.13   
5/28/2017  7:00 AM  IN-PT-133  Valparaiso 2.2 WNW 4.23  0.14   
5/28/2017  7:00 AM  KS-MP-42  McPherson 2.9 E 4.95  0.10   
5/28/2017  7:00 AM  KS-SG-111  Wichita 5.9 WSW 5.86  0.06   
5/28/2017  7:00 AM  KY-FR-1  Frankfort 3.3 NE 5.80  0.10   
5/28/2017  7:00 AM  ME-CM-3  New Gloucester 3.0 SE 0.30  0.04   
5/28/2017  7:00 AM  ME-LN-1  Newcastle 2.1 SW 1.62  0.09   
5/28/2017  7:00 AM  MD-HR-23  Norrisville 0.6 WSW 4.89  0.03   
5/28/2017  7:00 AM  MI-AN-1  Wayland 2.0 W 3.54  0.08   
5/28/2017  7:00 AM  MI-KN-14  Grandville 1.3 WSW 3.21  0.11   
5/28/2017  7:00 AM  MI-SG-15  Brant 0.2 N 0.40  0.16